Regional Weather Roundup
Issued by NWS

Home | Current Version | Previous Version | Text Only | Print | Product List | Glossary Off
Versions: 1 2 3 4 5 6 7 8 9 10 11 12 13 14 15 16 17 18 19 20 21 22 23 24 25 26 27

000
ASUS45 KBOU 291207
RWRCO

WEATHER ROUNDUP FOR COLORADO
NATIONAL WEATHER SERVICE DENVER/BOULDER CO
600 AM MDT FRI APR 29 2016

NOTE: "FAIR" INDICATES FEW OR NO CLOUDS BELOW 12000 FEET WITH NO
SIGNIFICANT WEATHER AND/OR OBSTRUCTIONS TO VISIBILITY.

COZ001>005-013-030-031-291300-
...NORTHWEST COLORADO...

CITY           SKY/WX    TMP DP  RH WIND       PRES   REMARKS
CRAIG          MOCLDY    36  33  89 NE6       29.84S
HAYDEN         FAIR      34  30  86 E6        29.84S WCI  29
MEEKER         FAIR      36  33  89 CALM      29.83S
MOUNT WERNER   NOT AVBL
STEAMBOAT SPGS CLOUDY    32  31  96 CALM      29.84F
WALDEN         FAIR      27  23  86 W5        29.90F WCI  21
$$

COZ006>008-011-291300-
...WEST CENTRAL VALLEYS...

CITY           SKY/WX    TMP DP  RH WIND       PRES   REMARKS
GRAND JUNCTION CLOUDY    38  37  97 NW3       29.82S
MONTROSE       FAIR      39  35  86 NE3       29.83S
EAGLE          CLOUDY    36  36 100 NE3       29.88F
RIFLE          FAIR      41  36  82 CALM      29.81F
DELTA          NOT AVBL
NUCLA          NOT AVBL
$$

COZ017>023-064>068-291300-
...SOUTHWEST COLORADO...

CITY           SKY/WX    TMP DP  RH WIND       PRES   REMARKS
DURANGO        MOCLDY    34  32  92 CALM      29.85S
CORTEZ         CLOUDY    32  29  88 E3        29.84S
PAGOSA SPRINGS MIX PCPN  34  34 100 CALM      29.86F
TELLURIDE      NOT AVBL
WOLF CREEK PAS NOT AVBL
$$

COZ009-010-012-014-032>034-037-058>063-291300-
...CENTRAL COLORADO...

CITY           SKY/WX    TMP DP  RH WIND       PRES   REMARKS
ASPEN          LGT SNOW  33  32  96 CALM      29.86S FOG
BUENA VISTA    LGT SNOW  29  28  95 CALM      29.93S
COPPER MTN     NOT AVBL
BERTHOUD PASS  HVY SNOW  14   5  67 E22G41    29.93F VSB<1/4 WCI  -4
COTTONWOOD PAS SNOW      30  27  86 E3        29.93S VSB 1/2
GUNNISON       FAIR      34  30  86 NE7       29.89S WCI  28
KREMMLING      CLOUDY    32  32 100 CALM      29.89F
LEADVILLE      MOCLDY    23  22  96 VRB3      29.90F
MONARCH PASS   CLOUDY    19  18  93 E24       29.99F WCI   2
SALIDA         CLOUDY    32  31  96 E8        30.00F WCI  25
SUNLIGHT       CLOUDY    28  27  93 CALM      29.93S
WILKERSON PASS LGT SNOW  21  19  93 E10       29.98S VSB 1   WCI  10
$$

COZ069>075-291300-
...SAN LUIS VALLEY/SANGRE DE CRISTO MOUNTAINS...

CITY           SKY/WX    TMP DP  RH WIND       PRES   REMARKS
ALAMOSA        FLURRIES  33  32  96 N5        29.83F WCI  29
LA VETA PASS   LGT SNOW  23  21  93 MISG      29.91F VSB 3/4
SAGUACHE       LGT SNOW  34  32  93 CALM      29.85F
$$

COZ035-036-038>040-291300-
...NORTHERN COLORADO FRONT RANGE...

CITY           SKY/WX    TMP DP  RH WIND       PRES   REMARKS
DENVER INTL AP SNOW      33  30  88 E9        29.98F VSB 1/4 WCI  25
DMNS CITY PARK   N/A     34  34  99 N3G12     29.99F
AURORA         CLOUDY    34  34  99 SE6       29.99F WCI  29
FRONT RANGE AP NOT AVBL
ERIE MUNI ARPT LGT SNOW  34  33  99 E3        30.00F
BOULDER MUN AP LGT RAIN  34  34 100 CALM      30.00F
CENTENNIAL     FLURRIES  34  33  96 CALM      29.98F
BROOMFIELD     LGT SNOW  34  34 100 NE3       30.00S
FORT COLLINS   CLOUDY    34  32  93 SE7       30.03R WCI  28
LONGMONT       LGT SNOW  35  34  95 CALM      30.03S
$$

COZ041-046-047-076>085-087-088-291300-
...PIKES PEAK/PALMER DIVIDE AND SOUTHERN FOOTHILLS...

CITY           SKY/WX    TMP DP  RH WIND       PRES   REMARKS
COLO. SPRINGS  FLURRIES  34  30  85 NE6       29.98S WCI  29
A. F. ACADEMY  FLURRIES  32  32 100 CALM      29.96F
SCHRIEVER AFB  NOT AVBL
ELLICOTT       NOT AVBL
FALCON         FLURRIES  31  31 100 NE5       29.97S WCI  26
FORT CARSON    FLURRIES  32  32 100 NW5       29.96S WCI  27
LIMON          CLOUDY    32  31  96 NE7       29.99S WCI  26
MONUMENT HILL  CLOUDY    30  30 100 E3        29.97F
TRINIDAD       LGT SNOW  33  31  92 W5        29.94R FOG     WCI  29
$$

COZ042>045-048>051-090-091-291300-
...NORTHEAST COLORADO...

CITY           SKY/WX    TMP DP  RH WIND       PRES   REMARKS
GREELEY ARPT   CLOUDY    36  34  93 E8        30.03S
AKRON          MIX PCPN  34  33  96 E8        30.01F FOG     WCI  27
BURLINGTON     LGT RAIN  38  34  85 NE15      29.99F
WRAY           NOT AVBL
STERLING       DRIZZLE   36  36 100 NE6       30.04F
HOLYOKE        NOT AVBL
FORT MORGAN    DRIZZLE   34  33  95 NE9       30.02F WCI  27
$$

COZ086-089-092>099-291300-
...SOUTHEAST COLORADO...

CITY           SKY/WX    TMP DP  RH WIND       PRES   REMARKS
PUEBLO         LGT SNOW  35  32  88 CALM      29.96F FOG
LA JUNTA       LGT RAIN  40  37  89 NE16      29.95F
LAMAR          CLOUDY    42  40  92 NE14      29.92F
SPRINGFIELD      N/A     40  40 100 NE18G28   29.89S
$$




USA.gov is the U.S. government's official web portal to all federal, state and local government web resources and services.